Location: Unspecified
(0.0000°N, 0.0000°E)
Time: 06:44:15
(UTC+00:00)

IBEX - Visible Passes

Search period start: 16 October 2019 00:00
Search period end: 26 October 2019 00:00
Orbit: 43050 x 333428 km, 30.2° (Epoch: 06 August)

Date Brightness Start Highest point End Pass type
(mag) Time Alt. Az. Time Alt. Az. Time Alt. Az.
17 Oct ? 09:05:43 10° ENE 14:35:47 73° N 20:00:58 10° WNW visible
18 Oct ? 10:03:23 10° E 15:26:37 81° N 20:48:35 10° W visible
19 Oct ? 10:36:22 10° E 15:57:59 86° N 21:19:12 10° W visible
20 Oct ? 11:02:08 10° E 16:23:10 90° S 21:44:12 10° W visible
21 Oct ? 11:26:18 10° E 16:47:09 86° S 22:08:20 10° W visible
22 Oct ? 11:52:50 10° E 17:13:50 81° S 22:35:40 10° W visible
23 Oct ? 12:27:40 10° ESE 17:49:38 76° S 23:13:46 10° WSW visible
24 Oct ? 13:28:51 10° ESE 18:56:55 67° S 00:34:37 10° WSW visible
